Henderson, NV

10:55 AM PDT on July 22, 2017 (GMT -0700)
Henderson

Weather History for KHND - October, 2012

Change the Weather History Date:

Thursday, October 4, 2012

  Actual Average (KLAS) Record (KLAS)
Temperature  
Mean Temperature 82 °F -  
Max Temperature 90 °F 86 °F 100 °F (1947)
Min Temperature 73 °F 59 °F 43 °F (1940)
Cooling Degree Days 16    
Growing Degree Days 32 (Base 50)    
Moisture  
Dew Point 33 °F    
Average Humidity 18    
Maximum Humidity 23    
Minimum Humidity 11    
Precipitation  
Precipitation 0.00 in - - ()
Sea Level Pressure  
Sea Level Pressure 29.84 in    
Wind  
Wind Speed 14 mph (SSW)    
Max Wind Speed 20 mph    
Max Gust Speed -    
Visibility 10 miles    
Events      
Averages and records for this station are not official NWS values.
T = Trace of Precipitation, MM = Missing Value Source: NWS Daily Summary

Daily Weather History Graph

Daily Weather History Graph

Search for Another Location

Airport or City:

Trip Planner

Search our weather history database for the weather conditions in past years. The results will help you decide how hot, cold, wet, or windy it might be!

Date:

Astronomy

Oct. 04, 2012 Rise Set
Actual Time 6:38 AM PDT 6:19 PM PDT
Civil Twilight 6:12 AM PDT 6:44 PM PDT
Nautical Twilight 5:43 AM PDT 7:14 PM PDT
Astronomical Twilight 5:13 AM PDT 7:43 PM PDT
Moon 9:06 PM PDT (10/4) 10:50 AM PDT (10/4)
Length of Visible Light 12h 31m
Length of Day
11h 40m
Waning Gibbous, 81% of the Moon is Illuminated
Oct 4
Waning Gibbous
Oct 8
Last Quarter
Oct 15
New
Oct 21
First Quarter
Oct 29
Full

Hourly Weather History & Observations

Time (PDT) Temp. Dew Point Humidity Pressure Visibility Wind Dir Wind Speed Gust Speed Precip Events Conditions
12:56 AM 75.9 °F 32.0 °F 20% 29.81 in 10.0 mi South 15.0 mph - N/A   Clear
1:56 AM 75.9 °F 32.0 °F 20% 29.81 in 10.0 mi SSW 15.0 mph - N/A   Clear
2:56 AM 73.9 °F 32.9 °F 22% 29.81 in 10.0 mi South 12.7 mph - N/A   Clear
3:56 AM 73.9 °F 32.0 °F 21% 29.81 in 10.0 mi South 13.8 mph - N/A   Clear
4:56 AM 75.9 °F 32.9 °F 21% 29.81 in 10.0 mi South 19.6 mph - N/A   Clear
5:56 AM 73.9 °F 32.9 °F 22% 29.83 in 10.0 mi South 18.4 mph - N/A   Clear
6:56 AM 73.9 °F 32.9 °F 22% 29.86 in 10.0 mi South 13.8 mph - N/A   Clear
7:56 AM 73.9 °F 34.0 °F 23% 29.88 in 10.0 mi SW 10.4 mph - N/A   Clear
8:56 AM 77.0 °F 34.9 °F 22% 29.89 in 10.0 mi SW 12.7 mph - N/A   Clear
9:56 AM 81.9 °F 34.9 °F 18% 29.90 in 10.0 mi SSW 13.8 mph - N/A   Clear
10:56 AM 84.9 °F 34.0 °F 16% 29.89 in 10.0 mi WSW 12.7 mph - N/A   Clear
11:56 AM 88.0 °F 34.0 °F 15% 29.88 in 10.0 mi SW 9.2 mph - N/A   Clear
12:56 PM 90.0 °F 32.0 °F 13% 29.86 in 10.0 mi SW 13.8 mph - N/A   Clear
1:56 PM 90.0 °F 30.0 °F 12% 29.83 in 10.0 mi SW 13.8 mph - N/A   Clear
2:56 PM 90.9 °F 32.0 °F 12% 29.82 in 10.0 mi SW 15.0 mph - N/A   Clear
3:56 PM 90.9 °F 30.0 °F 11% 29.80 in 10.0 mi SSW 15.0 mph - N/A   Clear
4:56 PM 90.0 °F 32.0 °F 13% 29.79 in 10.0 mi SSW 17.3 mph - N/A   Clear
5:56 PM 88.0 °F 32.0 °F 14% 29.80 in 10.0 mi SW 13.8 mph - N/A   Clear
7:56 PM 79.9 °F 32.9 °F 18% 29.83 in 10.0 mi SSE 9.2 mph - N/A   Clear
8:56 PM 81.0 °F 32.9 °F 18% 29.82 in 10.0 mi SSE 11.5 mph - N/A   Clear
9:56 PM 79.9 °F 32.9 °F 18% 29.83 in 10.0 mi South 11.5 mph - N/A   Clear
10:56 PM 77.9 °F 32.9 °F 19% 29.83 in 10.0 mi South 13.8 mph - N/A   Clear
11:56 PM 75.9 °F 32.9 °F 21% 29.84 in 10.0 mi SSW 12.7 mph - N/A   Clear